This is the latest recevied weather packets stored in our database for station/object W8DRH-13. If no packets are shown the sender has not sent any weather packets the latest 10 day(s).
| Time | Temp. | Humidity | Pressure | Rain* | Wind** | Luminosity | Snow |
|---|---|---|---|---|---|---|---|
| 1777923487 | 23.33° C | 55% | 1003.1 hPa | 0 mm | - | 327 W/m² | - |
| 1777923184 | 23.89° C | 54% | 1003.2 hPa | 0 mm | - | 725 W/m² | - |
| 1777922883 | 23.33° C | 54% | 1003 hPa | 0 mm | - | 750 W/m² | - |
| 1777922581 | 22.78° C | 56% | 1003.2 hPa | 0 mm | - | 820 W/m² | - |
| 1777922279 | 22.78° C | 55% | 1003.2 hPa | 0 mm | - | 233 W/m² | - |
| 1777921976 | 22.78° C | 55% | 1003.3 hPa | 0 mm | - | 842 W/m² | - |
| 1777921671 | 22.22° C | 56% | 1003.2 hPa | 0 mm | - | 364 W/m² | - |
| 1777921368 | 22.22° C | 57% | 1003.3 hPa | 0 mm | - | 434 W/m² | - |
| 1777921064 | 22.78° C | 56% | 1003.1 hPa | 0 mm | - | 390 W/m² | - |
| 1777920761 | 23.33° C | 55% | 1003.3 hPa | 0 mm | - | 385 W/m² | - |
| 1777920457 | 22.78° C | 56% | 1003.3 hPa | 0 mm | - | 831 W/m² | - |
| 1777920153 | 22.22° C | 56% | 1003.4 hPa | 0 mm | - | 752 W/m² | - |
| 1777919849 | 22.78° C | 56% | 1003.6 hPa | 0 mm | - | 342 W/m² | - |
| 1777919546 | 22.78° C | 56% | 1003.5 hPa | 0 mm | - | 678 W/m² | - |
| 1777919244 | 21.67° C | 57% | 1003.7 hPa | 0 mm | - | 676 W/m² | - |
| 1777918941 | 21.67° C | 57% | 1003.8 hPa | 0 mm | - | 765 W/m² | - |
| 1777918639 | 21.67° C | 58% | 1003.7 hPa | 0 mm | - | 815 W/m² | - |
| 1777918336 | 22.22° C | 57% | 1003.8 hPa | 0 mm | - | 268 W/m² | - |
| 1777918035 | 21.67° C | 59% | 1003.9 hPa | 0 mm | - | 780 W/m² | - |
| 1777917733 | 21.67° C | 59% | 1004.3 hPa | 0 mm | - | 764 W/m² | - |
| 1777917430 | 21.11° C | 58% | 1003.9 hPa | 0 mm | - | 738 W/m² | - |
| 1777917127 | 21.11° C | 58% | 1004.3 hPa | 0 mm | - | 724 W/m² | - |
| 1777916825 | 21.11° C | 59% | 1004.2 hPa | 0 mm | - | 691 W/m² | - |
| 1777916523 | 21.11° C | 60% | 1004.2 hPa | 0 mm | - | 698 W/m² | - |
| 1777916219 | 20.56° C | 59% | 1004.2 hPa | 0 mm | - | 719 W/m² | - |
* Rain latest hour (hover to see other rain measurements)
** Current wind speed in m/s (hover to see current wind gust speed)